H1 CPF 2 NER 2022 10 16 9 289 01 glonass142 H2 2001801 9142 45358 2022 10 16 0 0 0 2022 10 19 23 45 0 900 1 1 0 0 0 1 H9 10 0 59868 0.00000 0 21340666.016 -12907624.458 -5393878.652 10 0 59868 900.00000 0 21685994.478 -13268501.330 -2220032.030 10 0 59868 1800.00000 0 21667694.181 -13450202.167 996887.614 10 0 59868 2700.00000 0 21312914.885 -13404040.330 4194475.493 10 0 59868 3600.00000 0 20659775.030 -13089059.549 7310735.916 10 0 59868 4500.00000 0 19755634.877 -12473976.048 10285279.432 10 0 59868 5400.00000 0 18655002.659 -11538723.463 13060486.417 10 0 59868 6300.00000 0 17417162.159 -10275535.550 15582615.082 10 0 59868 7200.00000 0 16103621.470 -8689521.087 17802833.065 10 0 59868 8100.00000 0 14775489.636 -6798706.401 19678153.556 10 0 59868 9000.00000 0 13490890.563 -4633542.972 21172258.842 10 0 59868 9900.00000 0 12302521.696 -2235899.675 22256196.271 10 0 59868 10800.00000 0 11255458.690 342419.806 22908934.114 10 0 59868 11700.00000 0 10385296.976 3041574.355 23117767.263 10 0 59868 12600.00000 0 9716707.214 5795920.541 22878565.290 10 0 59868 13500.00000 0 9262464.450 8536494.608 22195858.104 10 0 59868 14400.00000 0 9022991.394 11193640.224 21082757.181 10 0 59868 15300.00000 0 8986435.037 13699674.505 19560713.136 10 0 59868 16200.00000 0 9129273.786 15991483.022 17659113.283 10 0 59868 17100.00000 0 9417430.271 18012936.950 15414725.669 10 0 59868 18000.00000 0 9807843.824 19717032.251 12870999.031 10 0 59868 18900.00000 0 10250437.153 21067661.917 10077230.954 10 0 59868 19800.00000 0 10690394.878 22040947.120 7087619.203 10 0 59868 20700.00000 0 11070658.037 22626071.033 3960213.972 10 0 59868 21600.00000 0 11334528.996 22825579.878 755790.938 10 0 59868 22500.00000 0 11428276.022 22655137.974 -2463332.946 10 0 59868 23400.00000 0 11303626.274 22142746.631 -5634517.397 10 0 59868 24300.00000 0 10920040.301 21327459.589 -8696026.026 10 0 59868 25200.00000 0 10246670.077 20257649.198 -11588238.001 10 0 59868 26100.00000 0 9263915.936 18988896.802 -14254819.303 10 0 59868 27000.00000 0 7964514.733 17581596.924 -16643829.729 10 0 59868 27900.00000 0 6354111.512 16098377.042 -18708743.072 10 0 59868 28800.00000 0 4451289.039 14601442.598 -20409359.779 10 0 59868 29700.00000 0 2287052.662 13149959.880 -21712593.839 10 0 59868 30600.00000 0 -96208.936 11797587.538 -22593118.362 10 0 59868 31500.00000 0 -2646244.159 10590261.001 -23033857.294 10 0 59868 32400.00000 0 -5302876.974 9564322.882 -23026314.013 10 0 59868 33300.00000 0 -8000282.719 8745077.589 -22570730.831 10 0 59868 34200.00000 0 -10669506.357 8145830.124 -21676076.847 10 0 59868 35100.00000 0 -13241118.309 7767448.377 -20359864.973 10 0 59868 36000.00000 0 -15647897.372 7598465.947 -18647802.252 10 0 59868 36900.00000 0 -17827429.163 7615719.727 -16573280.825 10 0 59868 37800.00000 0 -19724512.260 7785493.832 -14176719.954 10 0 59868 38700.00000 0 -21293272.463 8065120.199 -11504772.326 10 0 59868 39600.00000 0 -22498897.789 8404967.029 -8609410.546 10 0 59868 40500.00000 0 -23318922.942 8750730.001 -5546911.968 10 0 59868 41400.00000 0 -23744010.926 9045928.619 -2376761.936 10 0 59868 42300.00000 0 -23778200.523 9234501.625 839502.837 10 0 59868 43200.00000 0 -23438610.845 9263391.424 4039488.113 10 0 59868 44100.00000 0 -22754616.761 9085008.218 7161149.884 10 0 59868 45000.00000 0 -21766531.090 8659469.822 10143992.607 10 0 59868 45900.00000 0 -20523849.800 7956522.772 12930234.968 10 0 59868 46800.00000 0 -19083134.452 6957063.809 15465921.072 10 0 59868 47700.00000 0 -17505620.884 5654197.714 17701956.187 10 0 59868 48600.00000 0 -15854654.135 4053786.756 19595047.892 10 0 59868 49500.00000 0 -14193056.409 2174468.086 21108535.428 10 0 59868 50400.00000 0 -12580537.319 47137.467 22213092.148 10 0 59868 51300.00000 0 -11071253.611 -2286080.430 22887288.447 10 0 59868 52200.00000 0 -9711619.122 -4773333.917 23118004.966 10 0 59868 53100.00000 0 -8538455.424 -7354957.596 22900688.487 10 0 59868 54000.00000 0 -7577559.427 -9965719.588 22239445.627 10 0 59868 54900.00000 0 -6842747.118 -12537311.255 21146972.130 10 0 59868 55800.00000 0 -6335413.128 -15000977.721 19644318.427 10 0 59868 56700.00000 0 -6044624.476 -17290181.448 17760494.919 10 0 59868 57600.00000 0 -5947744.804 -19343189.227 15531923.362 10 0 59868 58500.00000 0 -6011563.343 -21105475.495 13001743.634 10 0 59868 59400.00000 0 -6193881.607 -22531842.058 10218988.038 10 0 59868 60300.00000 0 -6445491.406 -23588165.495 7237637.976 10 0 59868 61200.00000 0 -6712460.967 -24252698.563 4115580.605 10 0 59868 62100.00000 0 -6938632.506 -24516870.361 913485.274 10 0 59868 63000.00000 0 -7068225.143 -24385550.846 -2306378.433 10 0 59868 63900.00000 0 -7048432.139 -23876767.782 -5481357.556 10 0 59868 64800.00000 0 -6831901.212 -23020887.516 -8549643.130 10 0 59868 65700.00000 0 -6378991.352 -21859293.728 -11451483.184 10 0 59868 66600.00000 0 -5659708.844 -20442619.864 -14130356.544 10 0 59868 67500.00000 0 -4655238.776 -18828609.993 -16534083.496 10 0 59868 68400.00000 0 -3359005.476 -17079698.742 -18615850.696 10 0 59868 69300.00000 0 -1777215.533 -15260412.884 -20335129.507 10 0 59868 70200.00000 0 71140.960 -13434704.577 -21658469.417 10 0 59868 71100.00000 0 2154832.177 -11663328.932 -22560150.853 10 0 59868 72000.00000 0 4431447.431 -10001376.473 -23022684.683 10 0 59868 72900.00000 0 6848937.240 -8496064.079 -23037149.003 10 0 59868 73800.00000 0 9347566.574 -7184876.737 -22603357.048 10 0 59868 74700.00000 0 11862199.740 -6094137.380 -21729853.501 10 0 59868 75600.00000 0 14324821.697 -5238063.635 -20433739.855 10 0 59868 76500.00000 0 16667190.635 -4618349.643 -18740332.752 10 0 59868 77400.00000 0 18823511.231 -4224288.855 -16682662.539 10 0 59868 78300.00000 0 20733017.323 -4033430.840 -14300822.255 10 0 59868 79200.00000 0 22342356.605 -4012742.615 -11641180.178 10 0 59868 80100.00000 0 23607678.312 -4120223.907 -8755471.725 10 0 59868 81000.00000 0 24496337.503 -4306906.653 -5699788.755 10 0 59868 81900.00000 0 24988145.687 -4519153.076 -2533486.271 10 0 59868 82800.00000 0 25076116.567 -4701154.303 681971.819 10 0 59868 83700.00000 0 24766676.978 -4797523.281 3884205.258 10 0 59868 84600.00000 0 24079335.425 -4755872.033 7011125.054 10 0 59868 85500.00000 0 23045823.231 -4529264.280 10002132.692 10 0 59869 0.00000 0 21708745.416 -4078439.950 12799287.736 10 0 59869 900.00000 0 20119797.647 -3373717.563 15348423.150 10 0 59869 1800.00000 0 18337626.079 -2396495.098 17600183.642 10 0 59869 2700.00000 0 16425417.131 -1140285.276 19510972.858 10 0 59869 3600.00000 0 14448319.131 388758.033 21043788.285 10 0 59869 4500.00000 0 12470802.065 2171845.228 22168930.196 10 0 59869 5400.00000 0 10554064.580 4178089.059 22864571.639 10 0 59869 6300.00000 0 8753595.127 6365554.394 23117179.165 10 0 59869 7200.00000 0 7116987.701 8682777.567 22921776.543 10 0 59869 8100.00000 0 5682102.022 11070694.003 22282046.478 10 0 59869 9000.00000 0 4475643.894 13464895.919 21210267.988 10 0 59869 9900.00000 0 3512224.343 15798128.003 19727089.949 10 0 59869 10800.00000 0 2793936.386 18002918.929 17861144.162 10 0 59869 11700.00000 0 2310467.026 20014240.476 15648504.112 10 0 59869 12600.00000 0 2039739.920 21772084.198 13131998.602 10 0 59869 13500.00000 0 1949061.960 23223848.538 10360392.237 10 0 59869 14400.00000 0 1996725.779 24326436.484 7387447.479 10 0 59869 15300.00000 0 2134000.835 25047975.405 4270885.755 10 0 59869 16200.00000 0 2307428.929 25369086.131 1071267.312 10 0 59869 17100.00000 0 2461326.739 25283646.985 -2149188.421 10 0 59869 18000.00000 0 2540388.757 24799019.578 -5327818.560 10 0 59869 18900.00000 0 2492279.308 23935725.983 -8402744.194 10 0 59869 19800.00000 0 2270102.467 22726590.160 -11314084.683 10 0 59869 20700.00000 0 1834643.644 21215379.391 -14005133.930 10 0 59869 21600.00000 0 1156286.236 19455002.850 -16423474.701 10 0 59869 22500.00000 0 216520.476 17505343.331 -18522008.247 10 0 59869 23400.00000 0 -991020.853 15430813.747 -20259878.332 10 0 59869 24300.00000 0 -2460045.050 13297741.637 -21603271.185 10 0 59869 25200.00000 0 -4171623.492 11171691.959 -22526075.543 10 0 59869 26100.00000 0 -6094756.937 9114840.880 -23010389.928 10 0 59869 27000.00000 0 -8187459.090 7183510.735 -23046867.574 10 0 59869 27900.00000 0 -10398313.507 5425969.119 -22634892.706 10 0 59869 28800.00000 0 -12668438.801 3880583.717 -21782585.253 10 0 59869 29700.00000 0 -14933780.101 2574409.055 -20506634.512 10 0 59869 30600.00000 0 -17127631.013 1522262.936 -18831965.513 10 0 59869 31500.00000 0 -19183280.614 726329.626 -16791245.190 10 0 59869 32400.00000 0 -21036675.011 176304.434 -14424238.397 10 0 59869 33300.00000 0 -22628982.362 -149928.385 -11777026.790 10 0 59869 34200.00000 0 -23908954.409 -285114.922 -8901106.204 10 0 59869 35100.00000 0 -24834986.245 -270999.706 -5852380.499 10 0 59869 36000.00000 0 -25376788.780 -156313.076 -2690071.777 10 0 59869 36900.00000 0 -25516604.693 5535.917 524431.449 10 0 59869 37800.00000 0 -25249917.879 158962.625 3728765.515 10 0 59869 38700.00000 0 -24585627.675 248799.515 6860799.070 10 0 59869 39600.00000 0 -23545681.510 222868.630 9859833.251 10 0 59869 40500.00000 0 -22164182.192 34425.102 12667771.576 10 0 59869 41400.00000 0 -20486007.771 -355631.336 15230237.363 10 0 59869 42300.00000 0 -18565002.021 -976869.865 17497617.638 10 0 59869 43200.00000 0 -16461811.063 -1847846.495 19426014.239 10 0 59869 44100.00000 0 -14241455.963 -2975088.771 20978084.713 10 0 59869 45000.00000 0 -11970741.778 -4352590.282 22123757.698 10 0 59869 45900.00000 0 -9715609.889 -5961836.916 22840809.934 10 0 59869 46800.00000 0 -7538542.508 -7772364.942 23115294.476 10 0 59869 47700.00000 0 -5496126.082 -9742829.073 22941812.246 10 0 59869 48600.00000 0 -3636873.570 -11822537.739 22323621.790 10 0 59869 49500.00000 0 -1999395.045 -13953393.525 21272584.763 10 0 59869 50400.00000 0 -610991.896 -16072159.766 19808947.495 10 0 59869 51300.00000 0 513267.467 -18112960.624 17960961.847 10 0 59869 52200.00000 0 1370952.214 -20009911.864 15764351.387 10 0 59869 53100.00000 0 1972137.161 -21699773.534 13261631.906 10 0 59869 54000.00000 0 2338739.834 -23124514.264 10501298.128 10 0 59869 54900.00000 0 2503354.255 -24233679.918 7536891.193 10 0 59869 55800.00000 0 2507630.418 -24986466.879 4425964.257 10 0 59869 56700.00000 0 2400267.876 -25353412.110 1228965.830 10 0 59869 57600.00000 0 2234708.486 -25317627.875 -1991937.513 10 0 59869 58500.00000 0 2066626.477 -24875527.891 -5174075.685 10 0 59869 59400.00000 0 1951323.038 -24037013.150 -8255502.560 10 0 59869 60300.00000 0 1941136.995 -22825108.492 -11176211.528 10 0 59869 61200.00000 0 2082982.708 -21275064.416 -13879314.228 10 0 59869 62100.00000 0 2416121.059 -19432961.478 -16312158.452 10 0 59869 63000.00000 0 2970259.514 -17353875.763 -18427362.408 10 0 59869 63900.00000 0 3764063.128 -15099682.709 -20183744.364 10 0 59869 64800.00000 0 4804140.815 -12736591.764 -21547129.050 10 0 59869 65700.00000 0 6084550.862 -10332515.621 -22491014.858 10 0 59869 66600.00000 0 7586847.403 -7954384.644 -22997088.860 10 0 59869 67500.00000 0 9280666.634 -5665518.985 -23055579.861 10 0 59869 68400.00000 0 11124828.581 -3523168.171 -22665443.058 10 0 59869 69300.00000 0 13068908.404 -1576320.577 -21834373.191 10 0 59869 70200.00000 0 15055211.440 136126.542 -20578646.538 10 0 59869 71100.00000 0 17021069.240 1586761.247 -18922795.350 10 0 59869 72000.00000 0 18901360.311 2760558.578 -16899121.619 10 0 59869 72900.00000 0 20631149.944 3655253.849 -14547060.162 10 0 59869 73800.00000 0 22148338.624 4281174.066 -11912403.804 10 0 59869 74700.00000 0 23396208.100 4660536.631 -9046406.276 10 0 59869 75600.00000 0 24325758.746 4826246.999 -6004780.628 10 0 59869 76500.00000 0 24897740.618 4820247.834 -2846613.018 10 0 59869 77400.00000 0 25084293.599 4691490.931 366786.613 10 0 59869 78300.00000 0 24870128.545 4493618.806 3573074.404 10 0 59869 79200.00000 0 24253200.625 4282454.805 6710079.778 10 0 59869 80100.00000 0 23244847.378 4113408.293 9717006.486 10 0 59869 81000.00000 0 21869386.341 4038904.693 12535604.480 10 0 59869 81900.00000 0 20163189.511 4105948.832 15111290.361 10 0 59869 82800.00000 0 18173273.614 4353924.106 17394195.322 10 0 59869 83700.00000 0 15955464.870 4812719.920 19340121.180 10 0 59869 84600.00000 0 13572214.382 5501266.048 20911387.011 10 0 59869 85500.00000 0 11090154.375 6426535.504 22077550.962 10 0 59870 0.00000 0 8577496.078 7583058.031 22815994.222 10 0 59870 900.00000 0 6101374.762 8952966.011 23112356.933 10 0 59870 1800.00000 0 3725254.214 10506570.391 22960817.151 10 0 59870 2700.00000 0 1506492.493 12203446.107 22364208.915 10 0 59870 3600.00000 0 -505827.880 13993981.908 21333975.729 10 0 59870 4500.00000 0 -2272717.543 15821332.253 19889960.165 10 0 59870 5400.00000 0 -3766670.753 17623691.473 18060032.526 10 0 59870 6300.00000 0 -4972571.363 19336796.795 15879564.488 10 0 59870 7200.00000 0 -5888076.729 20896556.731 13390756.573 10 0 59870 8100.00000 0 -6523463.630 22241695.618 10641831.131 10 0 59870 9000.00000 0 -6900942.648 23316303.709 7686105.324 10 0 59870 9900.00000 0 -7053469.712 24072185.474 4580961.280 10 0 59870 10800.00000 0 -7023104.933 24470906.723 1386732.950 10 0 59870 11700.00000 0 -6858988.180 24485453.279 -1834468.782 10 0 59870 12600.00000 0 -6615017.402 24101429.983 -5019969.422 10 0 59870 13500.00000 0 -6347328.691 23317748.106 -8107758.340 10 0 59870 14400.00000 0 -6111685.815 22146770.786 -11037705.514 10 0 59870 15300.00000 0 -5960891.066 20613909.193 -13752742.679 10 0 59870 16200.00000 0 -5942328.488 18756685.530 -16199984.765 10 0 59870 17100.00000 0 -6095744.993 16623301.648 -18331768.799 10 0 59870 18000.00000 0 -6451364.659 14270773.232 -20106589.149 10 0 59870 18900.00000 0 -7028417.206 11762707.825 -21489910.366 10 0 59870 19800.00000 0 -7834143.898 9166819.946 -22454841.564 10 0 59870 20700.00000 0 -8863323.597 6552287.625 -22982659.128 10 0 59870 21600.00000 0 -10098339.557 3987060.981 -23063167.885 10 0 59870 22500.00000 0 -11509784.479 1535235.220 -22694894.094 10 0 59870 23400.00000 0 -13057578.505 -745402.514 -21885106.995 10 0 59870 24300.00000 0 -14692553.155 -2805550.778 -20649669.104 10 0 59870 25200.00000 0 -16358434.580 -4606206.099 -19012718.704 10 0 59870 26100.00000 0 -17994142.648 -6120035.551 -17006191.263 10 0 59870 27000.00000 0 -19536309.178 -7332254.067 -14669189.599 10 0 59870 27900.00000 0 -20921909.519 -8240971.783 -12047215.477 10 0 59870 28800.00000 0 -22090896.865 -8856998.979 -9191278.071 10 0 59870 29700.00000 0 -22988728.805 -9203119.050 -6156897.035 10 0 59870 30600.00000 0 -23568680.175 -9312862.188 -3003019.900 10 0 59870 31500.00000 0 -23793845.385 -9228833.282 209124.690 10 0 59870 32400.00000 0 -23638746.579 -9000666.166 3417215.448 10 0 59870 33300.00000 0 -23090480.624 -8682691.707 6559045.350 10 0 59870 34200.00000 0 -22149357.287 -8331418.984 9573723.535 10 0 59870 35100.00000 0 -20829002.359 -8002936.279 12402849.106 10 0 59870 36000.00000 0 -19155921.652 -7750341.609 14991634.564 10 0 59870 36900.00000 0 -17168544.253 -7621310.932 17289957.699 10 0 59870 37800.00000 0 -14915784.805 -7655906.097 19253322.471 10 0 59870 38700.00000 0 -12455184.204 -7884714.418 20843711.316 10 0 59870 39600.00000 0 -9850705.383 -8327397.748 22030313.319 10 0 59870 40500.00000 0 -7170274.669 -8991711.945 22790115.215 10 0 59870 41400.00000 0 -4483169.448 -9873038.136 23108344.522 10 0 59870 42300.00000 0 -1857359.129 -10954446.057 22978756.711 10 0 59870 43200.00000 0 643091.871 -12207287.904 22403761.006 10 0 59870 44100.00000 0 2960452.843 -13592299.222 21394382.085 10 0 59870 45000.00000 0 5045487.592 -15061162.386 19970057.714 10 0 59870 45900.00000 0 6859258.627 -16558468.926 18158275.270 10 0 59870 46800.00000 0 8374500.386 -18024000.178 15994052.850 10 0 59870 47700.00000 0 9576504.624 -19395232.017 13519273.695 10 0 59870 48600.00000 0 10463481.203 -20609959.591 10781885.501 10 0 59870 49500.00000 0 11046379.193 -21608932.369 7834978.894 10 0 59870 50400.00000 0 11348175.678 -22338388.590 4735762.208 10 0 59870 51300.00000 0 11402662.171 -22752381.946 1544451.918 10 0 59870 52200.00000 0 11252779.882 -22814801.403 -1676899.776 10 0 59870 53100.00000 0 10948574.412 -22500997.678 -4865616.975 10 0 59870 54000.00000 0 10544856.909 -21798946.177 -7959627.476 10 0 59870 54900.00000 0 10098671.502 -20709895.767 -10898680.680 10 0 59870 55800.00000 0 9666677.293 -19248474.506 -13625531.083 10 0 59870 56700.00000 0 9302557.015 -17442246.617 -16087063.233 10 0 59870 57600.00000 0 9054563.350 -15330738.322 -18235335.202 10 0 59870 58500.00000 0 8963308.032 -12963972.871 -20028519.370 10 0 59870 59400.00000 0 9059888.350 -10400575.895 -21431721.659 10 0 59870 60300.00000 0 9364431.153 -7705530.306 -22417663.021 10 0 59870 61200.00000 0 9885116.513 -4947674.828 -22967209.826 10 0 59870 62100.00000 0 10617722.620 -2197050.735 -23069743.132 10 0 59870 63000.00000 0 11545711.278 477792.528 -22723360.012 10 0 59870 63900.00000 0 12640850.328 3012420.497 -21934903.545 10 0 59870 64800.00000 0 13864346.575 5348956.828 -20719821.451 10 0 59870 65700.00000 0 15168441.254 7438245.328 -19101856.667 10 0 59870 66600.00000 0 16498400.504 9241641.784 -17112576.441 10 0 59870 67500.00000 0 17794816.763 10732362.356 -14790749.610 10 0 59870 68400.00000 0 18996123.947 11896333.967 -12181584.611 10 0 59870 69300.00000 0 20041220.345 12732513.100 -9335843.532 10 0 59870 70200.00000 0 20872088.734 13252661.816 -6308849.869 10 0 59870 71100.00000 0 21436303.485 13480592.573 -3159409.611 10 0 59870 72000.00000 0 21689319.276 13450915.593 51332.933 10 0 59870 72900.00000 0 21596445.391 13207343.341 3261082.067 10 0 59870 73800.00000 0 21134422.902 12800625.009 6407597.270 10 0 59870 74700.00000 0 20292538.828 12286199.141 9429895.841 10 0 59870 75600.00000 0 19073230.790 11721664.044 12269428.583 10 0 59870 76500.00000 0 17492156.984 11164172.827 14871206.172 10 0 59870 77400.00000 0 15577728.552 10667862.752 17184854.990 10 0 59870 78300.00000 0 13370123.605 10281426.704 19165582.860 10 0 59870 79200.00000 0 10919823.438 10045928.436 20775037.006 10 0 59870 80100.00000 0 8285731.046 9992952.839 21982038.601 10 0 59870 81000.00000 0 5532948.994 10143168.466 22763180.717 10 0 59870 81900.00000 0 2730307.426 10505362.428 23103278.886 10 0 59870 82800.00000 0 -52256.721 11075988.277 22995666.046 10 0 59870 83700.00000 0 -2746362.310 11839246.326 22442326.339 10 0 59870 84600.00000 0 -5287779.664 12767693.999 21453864.887 10 0 59870 85500.00000 0 -7618852.926 13823361.840 20049313.486 10 0 59871 0.00000 0 -9690649.635 14959329.730 18255775.148 10 0 59871 900.00000 0 -11464750.080 16121699.351 16107912.056 10 0 59871 1800.00000 0 -12914599.669 17251879.896 13647288.000 10 0 59871 2700.00000 0 -14026371.870 18289094.128 10921573.455 10 0 59871 3600.00000 0 -14799302.779 19172998.544 7983629.815 10 0 59871 4500.00000 0 -15245484.301 19846308.072 4890488.841 10 0 59871 5400.00000 0 -15389124.304 20257314.213 1702246.747 10 0 59871 6300.00000 0 -15265304.806 20362189.538 -1519105.709 10 0 59871 7200.00000 0 -14918290.679 20126979.958 -4710893.932 10 0 59871 8100.00000 0 -14399460.647 19529199.079 -7810986.767 10 0 59871 9000.00000 0 -13764948.703 18558955.611 -10759015.534 10 0 59871 9900.00000 0 -13073096.556 17219564.526 -13497559.829 10 0 59871 10800.00000 0 -12381826.002 15527614.632 -15973275.937 10 0 59871 11700.00000 0 -11746043.526 13512488.347 -18137944.854 10 0 59871 12600.00000 0 -11215188.057 11215352.892 -19949418.574 10 0 59871 13500.00000 0 -10831026.546 8687664.501 -21372445.714 10 0 59871 14400.00000 0 -10625791.331 5989247.934 -22379360.086 10 0 59871 15300.00000 0 -10620738.415 3186031.485 -22950618.766 10 0 59871 16200.00000 0 -10825187.776 347532.090 -23075179.432 10 0 59871 17100.00000 0 -11236086.095 -2455804.635 -22750710.020 10 0 59871 18000.00000 0 -11838110.058 -5155298.501 -21983627.118 10 0 59871 18900.00000 0 -12604305.393 -7686651.107 -20788962.926 10 0 59871 19800.00000 0 -13497234.121 -9992376.017 -19190063.913 10 0 59871 20700.00000 0 -14470581.040 -12023942.246 -17218127.621 10 0 59871 21600.00000 0 -15471151.106 -13743542.918 -14911587.083 10 0 59871 22500.00000 0 -16441172.987 -15125416.768 -12315355.314 10 0 59871 23400.00000 0 -17320811.197 -16156668.978 -9479945.028 10 0 59871 24300.00000 0 -18050780.599 -16837558.986 -6460481.140 10 0 59871 25200.00000 0 -18574952.837 -17181245.276 -3315625.567 10 0 59871 26100.00000 0 -18842844.780 -17212999.837 -106435.720 10 0 59871 27000.00000 0 -18811884.202 -16968927.242 3104820.927 10 0 59871 27900.00000 0 -18449357.399 -16494243.861 6255873.002 10 0 59871 28800.00000 0 -17733957.050 -15841190.898 9285648.641 10 0 59871 29700.00000 0 -16656865.409 -15066670.037 12135453.000 10 0 59871 30600.00000 0 -15222327.443 -14229701.665 14750097.530 10 0 59871 31500.00000 0 -13447689.860 -13388812.707 17078959.667 10 0 59871 32400.00000 0 -11362904.031 -12599463.591 19076953.346 10 0 59871 33300.00000 0 -9009512.938 -11911621.906 20705392.556 10 0 59871 34200.00000 0 -6439163.475 -11367583.928 21932732.187 10 0 59871 35100.00000 0 -3711704.735 -11000134.674 22735172.895 10 0 59871 36000.00000 0 -892949.762 -10831123.032 23097119.065 10 0 59871 36900.00000 0 1947807.975 -10870511.362 23011481.531 10 0 59871 37800.00000 0 4740422.195 -11115939.358 22479819.369 10 0 59871 38700.00000 0 7416558.336 -11552820.846 21512317.790 10 0 59871 39600.00000 0 9912285.999 -12154970.169 20127601.883 10 0 59871 40500.00000 0 12170493.071 -12885732.956 18352388.848 10 0 59871 41400.00000 0 14143022.260 -13699574.983 16220984.151 10 0 59871 42300.00000 0 15792441.615 -14544063.596 13774630.018 10 0 59871 43200.00000 0 17093375.585 -15362159.431 11060717.507 10 0 59871 44100.00000 0 18033340.948 -16094722.667 8131876.222 10 0 59871 45000.00000 0 18613052.355 -16683128.506 5044958.472 10 0 59871 45900.00000 0 18846184.391 -17071881.324 1859937.055 10 0 59871 46800.00000 0 18758599.903 -17211116.445 -1361262.027 10 0 59871 47700.00000 0 18387076.952 -17058882.636 -4555968.857 10 0 59871 48600.00000 0 17777588.236 -16583107.396 -7661996.660 10 0 59871 49500.00000 0 16983205.993 -15763160.179 -10618861.852 10 0 59871 50400.00000 0 16061721.581 -14590945.726 -13368972.093 10 0 59871 51300.00000 0 15073081.218 -13071479.567 -15858758.094 10 0 59871 52200.00000 0 14076747.261 -11222919.782 -18039726.139 10 0 59871 53100.00000 0 13129097.540 -9076052.393 -19869409.845 10 0 59871 54000.00000 0 12280973.547 -6673250.927 -21312202.127 10 0 59871 54900.00000 0 11575481.663 -4066953.045 -22340050.832 10 0 59871 55800.00000 0 11046140.665 -1317717.620 -22933004.447 10 0 59871 56700.00000 0 10715453.732 1508056.790 -23079597.505 10 0 59871 57600.00000 0 10593964.927 4340656.995 -22777068.572 10 0 59871 58500.00000 0 10679839.413 7109718.472 -22031407.060 10 0 59871 59400.00000 0 10958984.341 9746916.175 -20857228.550 10 0 59871 60300.00000 0 11405704.410 12188571.126 -19277481.579 10 0 59871 61200.00000 0 11983863.480 14378064.704 -17322992.156 10 0 59871 62100.00000 0 12648502.280 16267960.903 -15031855.382 10 0 59871 63000.00000 0 13347843.070 17821749.195 -12448686.421 10 0 59871 63900.00000 0 14025595.864 19015136.580 -9623745.938 10 0 59871 64800.00000 0 14623468.271 19836836.528 -6611957.352 10 0 59871 65700.00000 0 15083772.525 20288823.596 -3471835.456 10 0 59871 66600.00000 0 15352019.390 20386044.904 -264347.605 10 0 59871 67500.00000 0 15379389.377 20155602.487 2948270.089 10 0 59871 68400.00000 0 15124977.029 19635442.489 6103718.453 10 0 59871 69300.00000 0 14557713.829 18872607.745 9140839.314 10 0 59871 70200.00000 0 13657888.877 17921128.250 12000794.796 10 0 59871 71100.00000 0 12418203.435 16839638.821 14628199.441 10 0 59871 72000.00000 0 10844315.030 15688824.311 16972183.758 10 0 59871 72900.00000 0 8954847.961 14528799.439 18987369.507 10 0 59871 73800.00000 0 6780869.138 13416532.677 20634738.847 10 0 59871 74700.00000 0 4364850.259 12403421.448 21882381.483 10 0 59871 75600.00000 0 1759158.253 11533119.327 22706106.437 10 0 59871 76500.00000 0 -975864.793 10839705.339 23089907.384 10 0 59871 77400.00000 0 -3774154.149 10346271.275 23026273.108 10 0 59871 78300.00000 0 -6566415.880 10063985.646 22516337.268 10 0 59871 79200.00000 0 -9282759.618 9991673.319 21569864.352 10 0 59871 80100.00000 0 -11855363.154 10115928.653 20205071.469 10 0 59871 81000.00000 0 -14221059.737 10411757.946 18448288.452 10 0 59871 81900.00000 0 -16323741.765 10843725.014 16333461.580 10 0 59871 82800.00000 0 -18116481.496 11367552.722 13901509.152 10 0 59871 83700.00000 0 -19563280.750 11932113.996 11199540.067 10 0 59871 84600.00000 0 -20640376.546 12481729.160 8279949.226 10 0 59871 85500.00000 0 -21337047.622 12958673.129 5199406.527 99